Regional Weather Roundup
Issued by NWS

Home | Current Version | Previous Version | Text Only | Print | Product List | Glossary On
Versions: 1 2 3 4 5 6 7 8 9 10 11 12 13 14 15 16 17 18 19 20 21 22 23 24 25 26 27 28 29 30 31 32 33 34 35 36 37 38 39 40 41 42 43 44 45 46 47 48 49 50
000
ASUS43 KDTX 221101
RWRMI
MICHIGAN HOURLY REGIONAL WEATHER ROUNDUP
NATIONAL WEATHER SERVICE DETROIT/PONTIAC MI
700 AM EDT MON SEP 22 2014

NOTE: "FAIR" INDICATES FEW OR NO CLOUDS BELOW 12,000 FEET WITH NO
SIGNIFICANT WEATHER AND/OR OBSTRUCTION TO VISIBILITY.

MIZ047>049-052>055-059>063-066>070-074>076-081>083-221200-
SOUTHEAST LOWER MICHIGAN

CITY           SKY/WX    TMP DP  RH WIND       PRES   REMARKS
ADRIAN         CLOUDY    47  37  68 N8        30.15R
ALMA           CLOUDY    44  41  89 W7        30.15R
ANN ARBOR      CLOUDY    47  35  63 NW7       30.13R
BAD AXE        CLOUDY    47  40  78 NW6       30.10R
CARO           CLOUDY    47  40  76 NW5       30.11R
DETROIT CITY   CLOUDY    51  36  56 N8        30.12R
DETROIT        CLOUDY    48  37  65 NW8       30.13R
FLINT          CLOUDY    48  40  73 NW7       30.14R
GROSSE ILE     CLOUDY    48  39  71 N9        30.12R
HILLSDALE      CLOUDY    46  39  77 CALM      30.15R
HOWELL         CLOUDY    45  40  85 W6        30.14R

CITY           SKY/WX    TMP DP  RH WIND       PRES   REMARKS
JACKSON        CLOUDY    44  40  85 VRB3      30.15R
LAMBERTVILLE   CLOUDY    48  37  66 N7        30.15R
LANSING        CLOUDY    44  40  85 W7        30.17R
LAPEER         CLOUDY    46  40  79 NW5       30.12R
MASON          CLOUDY    45  40  84 W5        30.15R
MONROE         CLOUDY    48  39  71 N6        30.12R
MT. CLEMENS    CLOUDY    48  38  68 NW7       30.09R
PONTIAC        CLOUDY    46  37  71 NW9       30.11R
PORT HOPE        N/A     50  41  71 VRB5G20   30.06R
PORT HURON     CLOUDY    46  41  81 NW6       30.10R
TRI CITIES     CLOUDY    46  41  82 W9        30.14R
TROY           CLOUDY    49  38  64 NW6       30.13R
SAGINAW HB     CLOUDY    46  41  81 NW6       30.12R
$$
MIZ043>046-050>051-056>058-064>065-071>073-077>080-221200-
SOUTHWEST LOWER MICHIGAN

CITY           SKY/WX    TMP DP  RH WIND       PRES   REMARKS
BATTLE CREEK   CLEAR     43  37  79 NW7       30.18R
BENTON HARBOR  PTCLDY    41  38  89 CALM      30.20R
BIG RAPIDS     CLEAR     40  40  99 W6        30.16R
COLDWATER      MOCLDY    45  38  77 CALM      30.16S
FREMONT        FAIR      40  39  97 CALM      30.19R
HOLLAND        CLEAR     43  39  86 CALM      30.20R
GRAND RAPIDS   PTCLDY    44  38  79 W8        30.19R
IONIA          FAIR      43  40  91 W6        30.16R
KALAMAZOO      CLEAR     41  36  82 NW3       30.19R
LUDINGTON      PTCLDY    42  41  96 CALM      30.18S
MARSHALL       CLEAR     40  38  90 NW3       30.16R
MOUNT PLEASANT CLOUDY    45  41  86 W6        30.15R
MUSKEGON       PTCLDY    39  37  92 CALM      30.20R
SOUTH HAVEN    CLEAR     41  39  95 CALM      30.20R
$$
MIZ016>042-221200-
NORTHERN LOWER MICHIGAN

CITY           SKY/WX    TMP DP  RH WIND       PRES   REMARKS
ALPENA         CLOUDY    45  39  79 W3        30.10R
BEAVER ISLAND  CLEAR     45  39  79 NW3       30.15R
BELLAIRE       CLEAR     44  38  82 NW3       30.14R
CADILLAC       CLEAR     38  37  99 W5        30.13R WCI  34
CHARLEVOIX     MOCLDY    47  39  73 NW7       30.17R
FRANKFORT      CLEAR     43  39  86 CALM      30.17R
GAYLORD        PTCLDY    39  36  89 NW3       30.11R
GRAYLING       CLOUDY    42  40  95 CALM      30.13R
HARBOR SPRINGS CLEAR     42  39  89 CALM      30.14R
HOUGHTON LAKE  PTCLDY    42  39  89 NW5       30.13R
MANISTEE       PTCLDY    39  36  87 CALM      30.18R
OSCODA         CLOUDY    44  42  91 CALM      30.09R
PELLSTON       CLEAR     38  36  92 W6        30.13R WCI  33
ROGERS CITY    CLOUDY    46  39  77 W6        30.11R
TRAVERSE CITY  PTCLDY    43  39  86 NW3       30.14R
$$
MIZ007>008-015-221200-
EASTERN UPPER MICHIGAN

CITY           SKY/WX    TMP DP  RH WIND       PRES   REMARKS
KINROSS        CLOUDY    43  39  87 W6        30.10R
MACKINAC ISLAN CLEAR     43  38  80 NW8       30.11R
NEWBERRY       CLEAR     34  34  99 W5        30.12S WCI  30
S. S. MARIE    MOCLDY    42  33  70 NW6       30.10R
$$
MIZ004>006-011>014-085-221200-
CENTRAL UPPER MICHIGAN

CITY           SKY/WX    TMP DP  RH WIND       PRES   REMARKS
MANISTIQUE     CLEAR     32  32  99 CALM      30.14S
ESCANABA       CLEAR     34  32  93 W6        30.17R WCI  29
MENOMINEE      CLEAR     37  36  93 W3        30.18S
SAWYER-GWINN   CLEAR     34  32  93 CALM      30.13R
$$
MIZ001>003-009>011-084-221200-
WESTERN UPPER MICHIGAN

CITY           SKY/WX    TMP DP  RH WIND       PRES   REMARKS
IRON MOUNTAIN  CLEAR     32  30  92 CALM      30.15R FOG
HOUGHTON       CLOUDY    48  45  89 W12       30.12R
COPPER HARBOR    N/A     52  43  71 NW6       30.09S
IRONWOOD       MOCLDY    45  43  93 CALM      30.16S
$$

ABBREVIATIONS USED IN REMARKS
   TC - TEMPERATURE IN CELSIUS
  WCI - WIND CHILL INDEX
   HX - HEAT INDEX
  VSB - VISIBILITY



USA.gov is the U.S. government's official web portal to all federal, state and local government web resources and services.